GW6010 Weather Reports


time (UTC)temp
F
wind
direction
speed
knots
gust
knots
rain 1hr
in
rain 24hr
in
rain mn
in
humidity
%
barometer
mb
20260505101533 37 275 0.0 0.9 0.00 0.03 0.00 95 1015.1
20260505100016 37 253 0.0 0.0 0.00 0.03 0.00 95 1015.0
20260505094517 37 253 0.0 0.0 0.00 0.03 0.00 94 1014.9
20260505093027 38 253 0.0 0.0 0.00 0.03 0.00 95 1014.8
20260505091525 37 253 0.0 0.0 0.00 0.03 0.00 95 1014.9
20260505090030 37 252 0.0 0.0 0.00 0.03 0.00 94 1014.8
20260505084526 38 252 0.0 0.0 0.00 0.03 0.00 94 1014.8
20260505083019 38 252 0.0 0.0 0.00 0.03 0.00 95 1014.8
20260505081524 38 252 0.0 0.0 0.00 0.03 0.00 94 1014.6
20260505080029 39 252 0.0 0.0 0.00 0.03 0.00 94 1014.3
20260505074526 39 252 0.0 0.0 0.00 0.03 0.00 94 1014.3
20260505073018 39 252 0.0 0.0 0.00 0.03 0.00 94 1014.1
20260505071522 39 252 0.0 0.0 0.00 0.03 0.00 93 1014.1
20260505070027 39 252 0.0 0.0 0.00 0.03 0.00 94 1014.0
20260505064526 40 252 0.0 0.0 0.00 0.03 0.00 94 1014.0
20260505063026 40 252 0.0 0.0 0.00 0.03 0.00 93 1014.1
20260505061522 41 252 0.0 0.0 0.00 0.03 0.00 93 1014.1
20260505060024 41 252 0.0 0.0 0.00 0.03 0.00 93 1014.1
20260505054507 41 252 0.0 0.0 0.00 0.03 0.00 93 1013.9
20260505053015 42 252 0.0 0.0 0.00 0.03 0.00 92 1013.8
20260505051516 42 252 0.0 0.0 0.00 0.03 0.00 93 1013.8
20260505041513 43 252 0.0 0.0 0.00 0.03 0.00 92 1013.4
20260505040035 43 252 0.0 0.0 0.00 0.03 0.00 91 1013.4
20260505034533 43 252 0.0 0.0 0.00 0.03 0.03 90 1013.4
20260505033024 44 253 0.0 0.0 0.00 0.03 0.03 90 1013.4
20260505031508 45 253 0.0 0.0 0.00 0.03 0.03 88 1013.5
20260505030016 46 253 0.0 0.0 0.00 0.03 0.03 88 1013.4
20260505024518 46 253 0.0 0.0 0.00 0.03 0.03 87 1013.4
20260505023022 47 254 0.0 0.0 0.00 0.03 0.03 88 1013.4
20260505021524 48 250 0.0 0.0 0.00 0.03 0.03 86 1013.3
20260505020014 48 250 0.0 0.0 0.00 0.03 0.03 85 1013.3
20260505014516 50 248 0.0 0.9 0.00 0.03 0.03 82 1013.2
20260505013024 51 235 0.0 0.0 0.00 0.03 0.03 82 1013.1
20260505011521 52 235 0.0 0.0 0.00 0.03 0.03 79 1013.0
20260505010027 54 235 0.0 0.0 0.00 0.03 0.03 77 1012.9
20260505004517 55 234 0.0 0.0 0.00 0.03 0.03 71 1012.7
20260505003017 58 235 0.0 0.0 0.00 0.03 0.03 66 1012.5
20260505001522 61 226 0.0 0.0 0.00 0.03 0.03 59 1012.4
20260505000004 63 226 0.9 4.3 0.00 0.03 0.03 49 1012.3
20260504234513 67 245 1.7 3.5 0.00 0.03 0.03 44 1012.2
20260504233016 69 255 0.9 5.2 0.00 0.03 0.03 42 1012.1
20260504231502 69 249 1.7 6.1 0.00 0.03 0.03 41 1012.2
20260504230006 69 259 6.1 11.3 0.00 0.03 0.03 38 1012.2
20260504224506 71 252 3.5 10.4 0.00 0.03 0.03 38 1012.1
20260504223010 71 293 3.5 7.8 0.00 0.03 0.03 39 1012.1
20260504221525 71 281 1.7 5.2 0.00 0.03 0.03 44 1012.1
20260504220009 70 268 0.0 3.5 0.00 0.03 0.03 47 1012.3
20260504214507 69 15 0.9 2.6 0.00 0.03 0.03 49 1012.4
20260504213014 68 287 0.9 6.1 0.00 0.03 0.03 49 1012.5
20260504211511 66 281 3.5 5.2 0.00 0.03 0.03 57 1012.7
20260504210020 64 238 1.7 6.1 0.03 0.03 0.03 63 1012.9
20260504204503 62 245 3.5 7.0 0.03 0.03 0.03 68 1013.1
20260504203007 60 229 3.5 5.2 0.03 0.03 0.03 72 1013.5
20260504201508 60 214 4.3 21.7 0.03 0.03 0.03 68 1013.4
20260504200014 65 264 3.5 9.6 0.00 0.00 0.00 50 1013.3
20260504194519 67 290 4.3 8.7 0.00 0.00 0.00 45 1013.0
20260504193003 68 265 6.1 11.3 0.00 0.00 0.00 43 1012.8
20260504191507 69 279 7.0 12.2 0.00 0.00 0.00 44 1013.0
20260504190015 69 234 7.0 13.0 0.00 0.00 0.00 47 1013.2
20260504184520 68 267 4.3 17.4 0.00 0.00 0.00 46 1013.5
20260504183021 67 242 8.7 19.1 0.00 0.00 0.00 47 1013.4
20260504181507 65 257 4.3 11.3 0.00 0.00 0.00 49 1013.7
20260504180011 65 247 8.7 13.9 0.00 0.00 0.00 49 1013.9
20260504174519 65 288 5.2 9.6 0.00 0.00 0.00 51 1014.1
20260504173017 62 181 4.3 7.8 0.00 0.00 0.00 55 1014.3
20260504171524 61 257 4.3 12.2 0.00 0.00 0.00 56 1014.6